sat.trackr.live / text

‹ back to catalog

ZHEDA PIXING 1B

NORAD 37166 · 2010-047B

PAYLOAD ACTIVE UNKNOWN

§ Identity

Operator
Country
PRC
Launch date
2010-09-22
Launch site
JSC
Launch vehicle
Mass (kg)
RCS (m²)
0.15

External: N2YO · Heavens-Above · Gunter

§ Orbital elements

Epoch: 2026-09-20T04:07:41.136096Z

Period
96.55 min
Inclination
97.9602°
Eccentricity
0.0018623
Mean motion
14.91482217 rev/d
Perigee alt
580.3 km
Apogee alt
606.3 km
Semi-major
6,971.5 km
B*
1.8711e-4
RAAN
242.1438°
Arg perigee
332.2539°
Mean anomaly
27.7684°
Rev number
86,457

§ Raw data

ZHEDA PIXING 1B1 37166U 10047B   26263.17200389  .00001819  00000+0  18711-3 0  99932 37166  97.9602 242.1438 0018623 332.2539  27.7684 14.91482217864572

JSON: /api/v1/satellites/37166 · /tle

For live sub-satellite position, see the globe view (requires WebGL).

§ Visibility from observer

Set your observer location to see the next 7 days of passes ≥ 10°. The values pass through the URL so the page stays shareable.

No JS? Fill the form by hand. The geolocation button needs JavaScript.

§ Radio — SatNOGS DB

ModeDescriptionDownlinkUplink
BPSK S-band telemetry 2.290 GHz

1 transmitter · refreshed weekly from db.satnogs.org